"Sample Date","Sample Time","Sample Value","Units","Flow Rate","Sample Interval","Number Channels","Micron Size 0","Counts/Channel 0","Micron Size 1","Counts/Channel 1","Micron Size 2","Counts/Channel 2","Micron Size 3","Counts/Channel 3","Micron Size 4","Counts/Channel 4","Micron Size 5","Counts/Channel 5","Micron Size 6","Counts/Channel 6","Micron Size 7","Counts/Channel 7","Micron Size 8","Counts/Channel 8","Micron Size 9","Counts/Channel 9","Micron Size 10","Counts/Channel 10","Micron Size 11","Counts/Channel 11","Micron Size 12","Counts/Channel 12","Micron Size 13","Counts/Channel 13","Micron Size 14","Counts/Channel 14","Micron Size 15","Counts/Channel 15","Micron Size 16","Counts/Channel 16","Micron Size 17","Counts/Channel 17","Micron Size 18","Counts/Channel 18","Micron Size 19","Counts/Channel 19","Micron Size 20","Counts/Channel 20","Micron Size 21","Counts/Channel 21","Micron Size 22","Counts/Channel 22","Micron Size 23","Counts/Channel 23","Micron Size 24","Counts/Channel 24","Micron Size 25","Counts/Channel 25","Micron Size 26","Counts/Channel 26","Micron Size 27","Counts/Channel 27","Micron Size 28","Counts/Channel 28","Micron Size 29","Counts/Channel 29","Micron Size 30","Counts/Channel 30","Micron Size 31","Counts/Channel 31"
"04/02/08","15:00:01",24702.000,"cc",28342.928,6.00,6,0.100,21779.000,0.200,1489.000,0.300,561.000,0.500,637.000,1.000,236.000,5.000,0
"04/02/08","15:00:07",25060.000,"cc",28285.406,6.00,6,0.100,21826.000,0.200,1590.000,0.300,656.000,0.500,725.000,1.000,263.000,5.000,0
"04/02/08","15:00:13",24960.000,"cc",28254.920,6.00,6,0.100,21987.000,0.200,1471.000,0.300,565.000,0.500,677.000,1.000,260.000,5.000,0
"04/02/08","15:00:19",24684.000,"cc",28341.299,6.00,6,0.100,21642.000,0.200,1507.000,0.300,603.000,0.500,703.000,1.000,229.000,5.000,0
"04/02/08","15:00:25",25351.000,"cc",28326.357,6.00,6,0.100,22232.000,0.200,1532.000,0.300,620.000,0.500,714.000,1.000,253.000,5.000,0
"04/02/08","15:00:31",24945.000,"cc",28354.414,6.00,6,0.100,21901.000,0.200,1509.000,0.300,570.000,0.500,695.000,1.000,270.000,5.000,0
"04/02/08","15:00:37",25484.000,"cc",28393.014,6.00,6,0.100,22470.000,0.200,1525.000,0.300,575.000,0.500,675.000,1.000,239.000,5.000,0
"04/02/08","15:00:43",25350.000,"cc",28378.961,6.00,6,0.100,22197.000,0.200,1564.000,0.300,608.000,0.500,722.000,1.000,259.000,5.000,0
"04/02/08","15:00:49",25464.000,"cc",28289.242,6.00,6,0.100,22352.000,0.200,1543.000,0.300,590.000,0.500,682.000,1.000,297.000,5.000,0
"04/02/08","15:00:55",25345.000,"cc",28296.658,6.00,6,0.100,22308.000,0.200,1514.000,0.300,569.000,0.500,719.000,1.000,235.000,5.000,0
"04/02/08","15:01:01",25971.000,"cc",28307.563,6.00,6,0.100,22801.000,0.200,1569.000,0.300,620.000,0.500,708.000,1.000,273.000,5.000,0
"04/02/08","15:01:07",25290.000,"cc",28414.148,6.00,6,0.100,22428.000,0.200,1449.000,0.300,566.000,0.500,634.000,1.000,213.000,5.000,0
"04/02/08","15:01:13",25687.000,"cc",28386.664,6.00,6,0.100,22743.000,0.200,1482.000,0.300,583.000,0.500,637.000,1.000,242.000,5.000,0
"04/02/08","15:01:19",25652.000,"cc",28217.252,6.00,6,0.100,22542.000,0.200,1575.000,0.300,613.000,0.500,668.000,1.000,254.000,5.000,0
"04/02/08","15:01:25",25632.000,"cc",28286.777,6.00,6,0.100,22662.000,0.200,1522.000,0.300,540.000,0.500,648.000,1.000,260.000,5.000,0
"04/02/08","15:01:31",26010.000,"cc",28279.490,6.00,6,0.100,22887.000,0.200,1635.000,0.300,577.000,0.500,664.000,1.000,247.000,5.000,0
"04/02/08","15:01:37",26290.000,"cc",28385.732,6.00,6,0.100,23093.000,0.200,1619.000,0.300,614.000,0.500,679.000,1.000,285.000,5.000,0
"04/02/08","15:01:43",25979.000,"cc",28384.395,6.00,6,0.100,22918.000,0.200,1579.000,0.300,591.000,0.500,659.000,1.000,232.000,5.000,0
"04/02/08","15:01:49",26026.000,"cc",28281.826,6.00,6,0.100,23048.000,0.200,1549.000,0.300,551.000,0.500,636.000,1.000,242.000,5.000,0
"04/02/08","15:01:55",25944.000,"cc",28263.748,6.00,6,0.100,22955.000,0.200,1575.000,0.300,523.000,0.500,647.000,1.000,244.000,5.000,0
"04/02/08","15:02:01",26381.000,"cc",28334.623,6.00,6,0.100,23225.000,0.200,1667.000,0.300,607.000,0.500,661.000,1.000,221.000,5.000,0
"04/02/08","15:02:07",26058.000,"cc",28332.469,6.00,6,0.100,23115.000,0.200,1495.000,0.300,553.000,0.500,670.000,1.000,225.000,5.000,0
"04/02/08","15:02:13",26330.000,"cc",28335.682,6.00,6,0.100,23215.000,0.200,1578.000,0.300,621.000,0.500,671.000,1.000,245.000,5.000,0
"04/02/08","15:02:19",25906.000,"cc",28326.688,6.00,6,0.100,22998.000,0.200,1547.000,0.300,494.000,0.500,623.000,1.000,244.000,5.000,0
"04/02/08","15:02:25",25975.000,"cc",28351.813,6.00,6,0.100,22979.000,0.200,1558.000,0.300,573.000,0.500,646.000,1.000,219.000,5.000,0
"04/02/08","15:02:31",25559.000,"cc",28273.734,6.00,6,0.100,22496.000,0.200,1563.000,0.300,608.000,0.500,654.000,1.000,238.000,5.000,0
"04/02/08","15:02:37",25892.000,"cc",28330.504,6.00,6,0.100,22741.000,0.200,1618.000,0.300,606.000,0.500,665.000,1.000,262.000,5.000,0
"04/02/08","15:02:43",25717.000,"cc",28430.086,6.00,6,0.100,22563.000,0.200,1605.000,0.300,571.000,0.500,718.000,1.000,260.000,5.000,0
"04/02/08","15:02:49",25388.000,"cc",28287.281,6.00,6,0.100,22314.000,0.200,1583.000,0.300,558.000,0.500,689.000,1.000,244.000,5.000,0
"04/02/08","15:02:55",25430.000,"cc",28268.180,6.00,6,0.100,22465.000,0.200,1496.000,0.300,548.000,0.500,659.000,1.000,262.000,5.000,0
"04/02/08","15:03:01",25764.000,"cc",28269.830,6.00,6,0.100,22609.000,0.200,1603.000,0.300,587.000,0.500,737.000,1.000,228.000,5.000,0
"04/02/08","15:03:07",25711.000,"cc",28341.463,6.00,6,0.100,22500.000,0.200,1588.000,0.300,598.000,0.500,772.000,1.000,253.000,5.000,0
"04/02/08","15:03:13",25073.000,"cc",28276.336,6.00,6,0.100,22049.000,0.200,1574.000,0.300,566.000,0.500,642.000,1.000,242.000,5.000,0
"04/02/08","15:03:19",25383.000,"cc",28294.410,6.00,6,0.100,22181.000,0.200,1586.000,0.300,595.000,0.500,782.000,1.000,239.000,5.000,0
"04/02/08","15:03:25",25552.000,"cc",28299.869,6.00,6,0.100,22522.000,0.200,1570.000,0.300,583.000,0.500,645.000,1.000,232.000,5.000,0
"04/02/08","15:03:31",25167.000,"cc",28250.006,6.00,6,0.100,22042.000,0.200,1557.000,0.300,616.000,0.500,685.000,1.000,267.000,5.000,0
"04/02/08","15:03:37",25439.000,"cc",28310.258,6.00,6,0.100,22330.000,0.200,1539.000,0.300,597.000,0.500,717.000,1.000,256.000,5.000,0
"04/02/08","15:03:43",25742.000,"cc",28334.949,6.00,6,0.100,22530.000,0.200,1592.000,0.300,625.000,0.500,720.000,1.000,275.000,5.000,0
"04/02/08","15:03:49",25553.000,"cc",28347.137,6.00,6,0.100,22211.000,0.200,1608.000,0.300,633.000,0.500,826.000,1.000,275.000,5.000,0
"04/02/08","15:03:55",25633.000,"cc",28379.106,6.00,6,0.100,22234.000,0.200,1669.000,0.300,684.000,0.500,743.000,1.000,303.000,5.000,0
"04/02/08","15:04:01",26139.000,"cc",28392.822,6.00,6,0.100,22838.000,0.200,1632.000,0.300,656.000,0.500,742.000,1.000,271.000,5.000,0
"04/02/08","15:04:07",26249.000,"cc",28358.721,6.00,6,0.100,23132.000,0.200,1581.000,0.300,596.000,0.500,711.000,1.000,229.000,5.000,0
"04/02/08","15:04:13",26275.000,"cc",28287.543,6.00,6,0.100,22956.000,0.200,1679.000,0.300,633.000,0.500,741.000,1.000,266.000,5.000,0
"04/02/08","15:04:19",25977.000,"cc",28367.205,6.00,6,0.100,22795.000,0.200,1653.000,0.300,594.000,0.500,692.000,1.000,243.000,5.000,0
"04/02/08","15:04:25",25454.000,"cc",28368.432,6.00,6,0.100,22353.000,0.200,1603.000,0.300,593.000,0.500,669.000,1.000,236.000,5.000,0
"04/02/08","15:04:31",24860.000,"cc",28304.266,6.00,6,0.100,21794.000,0.200,1539.000,0.300,588.000,0.500,676.000,1.000,263.000,5.000,0
"04/02/08","15:04:37",25210.000,"cc",28247.156,6.00,6,0.100,22153.000,0.200,1544.000,0.300,606.000,0.500,670.000,1.000,237.000,5.000,0
"04/02/08","15:04:43",25653.000,"cc",28329.598,6.00,6,0.100,22313.000,0.200,1725.000,0.300,624.000,0.500,720.000,1.000,271.000,5.000,0
"04/02/08","15:04:49",25869.000,"cc",28209.029,6.00,6,0.100,22464.000,0.200,1703.000,0.300,649.000,0.500,780.000,1.000,273.000,5.000,0
"04/02/08","15:04:55",25474.000,"cc",28275.643,6.00,6,0.100,22064.000,0.200,1628.000,0.300,698.000,0.500,824.000,1.000,260.000,5.000,0
"04/02/08","15:05:01",25914.000,"cc",28346.102,6.00,6,0.100,22355.000,0.200,1720.000,0.300,711.000,0.500,830.000,1.000,298.000,5.000,0
"04/02/08","15:05:07",25876.000,"cc",28356.854,6.00,6,0.100,22592.000,0.200,1633.000,0.300,648.000,0.500,724.000,1.000,279.000,5.000,0
"04/02/08","15:05:13",25867.000,"cc",28250.912,6.00,6,0.100,22346.000,0.200,1710.000,0.300,717.000,0.500,774.000,1.000,320.000,5.000,0
"04/02/08","15:05:19",25701.000,"cc",28413.201,6.00,6,0.100,22354.000,0.200,1659.000,0.300,647.000,0.500,752.000,1.000,289.000,5.000,0
"04/02/08","15:05:25",25835.000,"cc",28367.637,6.00,6,0.100,22595.000,0.200,1641.000,0.300,603.000,0.500,729.000,1.000,267.000,5.000,0
"04/02/08","15:05:31",25712.000,"cc",28303.701,6.00,6,0.100,22507.000,0.200,1608.000,0.300,599.000,0.500,749.000,1.000,249.000,5.000,0
"04/02/08","15:05:37",25398.000,"cc",28298.090,6.00,6,0.100,22220.000,0.200,1609.000,0.300,632.000,0.500,695.000,1.000,242.000,5.000,0
"04/02/08","15:05:43",25571.000,"cc",28310.512,6.00,6,0.100,22127.000,0.200,1683.000,0.300,675.000,0.500,810.000,1.000,276.000,5.000,0
"04/02/08","15:05:49",25630.000,"cc",28269.688,6.00,6,0.100,22265.000,0.200,1637.000,0.300,706.000,0.500,731.000,1.000,291.000,5.000,0
"04/02/08","15:05:55",26293.000,"cc",28353.080,6.00,6,0.100,22637.000,0.200,1747.000,0.300,739.000,0.500,885.000,1.000,285.000,5.000,0
"04/02/08","15:06:01",25834.000,"cc",28397.172,6.00,6,0.100,22635.000,0.200,1642.000,0.300,597.000,0.500,702.000,1.000,258.000,5.000,0
"04/02/08","15:06:07",25308.000,"cc",28287.955,6.00,6,0.100,22200.000,0.200,1588.000,0.300,588.000,0.500,661.000,1.000,271.000,5.000,0
"04/02/08","15:06:13",26069.000,"cc",28208.641,6.00,6,0.100,22711.000,0.200,1637.000,0.300,671.000,0.500,770.000,1.000,280.000,5.000,0
"04/02/08","15:06:19",25450.000,"cc",28338.475,6.00,6,0.100,22274.000,0.200,1559.000,0.300,633.000,0.500,720.000,1.000,264.000,5.000,0
"04/02/08","15:06:25",25919.000,"cc",28372.156,6.00,6,0.100,22572.000,0.200,1664.000,0.300,645.000,0.500,768.000,1.000,270.000,5.000,0
"04/02/08","15:06:31",25471.000,"cc",28359.295,6.00,6,0.100,22260.000,0.200,1588.000,0.300,615.000,0.500,725.000,1.000,283.000,5.000,0
"04/02/08","15:06:37",25351.000,"cc",28310.994,6.00,6,0.100,22122.000,0.200,1592.000,0.300,628.000,0.500,741.000,1.000,268.000,5.000,0
"04/02/08","15:06:43",25382.000,"cc",28321.025,6.00,6,0.100,22267.000,0.200,1565.000,0.300,587.000,0.500,711.000,1.000,252.000,5.000,0
"04/02/08","15:06:49",25496.000,"cc",28287.881,6.00,6,0.100,22346.000,0.200,1580.000,0.300,600.000,0.500,723.000,1.000,247.000,5.000,0
"04/02/08","15:06:55",25473.000,"cc",28291.596,6.00,6,0.100,22207.000,0.200,1632.000,0.300,679.000,0.500,721.000,1.000,234.000,5.000,0
"04/02/08","15:07:01",25380.000,"cc",28293.533,6.00,6,0.100,22020.000,0.200,1624.000,0.300,666.000,0.500,797.000,1.000,273.000,5.000,0
"04/02/08","15:07:07",25182.000,"cc",28296.678,6.00,6,0.100,21930.000,0.200,1568.000,0.300,658.000,0.500,738.000,1.000,288.000,5.000,0
"04/02/08","15:07:13",25370.000,"cc",28369.004,6.00,6,0.100,22097.000,0.200,1581.000,0.300,632.000,0.500,770.000,1.000,290.000,5.000,0
"04/02/08","15:07:19",25407.000,"cc",28243.549,6.00,6,0.100,22024.000,0.200,1580.000,0.300,693.000,0.500,829.000,1.000,281.000,5.000,0
"04/02/08","15:07:25",25508.000,"cc",28329.795,6.00,6,0.100,22085.000,0.200,1641.000,0.300,638.000,0.500,871.000,1.000,273.000,5.000,0
"04/02/08","15:07:31",25667.000,"cc",28339.490,6.00,6,0.100,22323.000,0.200,1594.000,0.300,690.000,0.500,778.000,1.000,282.000,5.000,0
"04/02/08","15:07:37",25953.000,"cc",28242.969,6.00,6,0.100,22429.000,0.200,1696.000,0.300,692.000,0.500,855.000,1.000,281.000,5.000,0
"04/02/08","15:07:43",25963.000,"cc",28312.947,6.00,6,0.100,22383.000,0.200,1700.000,0.300,700.000,0.500,882.000,1.000,298.000,5.000,0
"04/02/08","15:07:49",25860.000,"cc",28442.758,6.00,6,0.100,22402.000,0.200,1655.000,0.300,743.000,0.500,779.000,1.000,281.000,5.000,0
"04/02/08","15:07:55",26335.000,"cc",28329.510,6.00,6,0.100,22622.000,0.200,1777.000,0.300,743.000,0.500,874.000,1.000,318.000,5.000,1.000
"04/02/08","15:08:01",26565.000,"cc",28260.762,6.00,6,0.100,22765.000,0.200,1863.000,0.300,725.000,0.500,889.000,1.000,323.000,5.000,0
"04/02/08","15:08:07",27093.000,"cc",28272.940,6.00,6,0.100,23377.000,0.200,1829.000,0.300,727.000,0.500,883.000,1.000,277.000,5.000,0
"04/02/08","15:08:13",26044.000,"cc",28362.525,6.00,6,0.100,22716.000,0.200,1697.000,0.300,646.000,0.500,725.000,1.000,260.000,5.000,0
"04/02/08","15:08:19",25986.000,"cc",28356.615,6.00,6,0.100,22843.000,0.200,1575.000,0.300,598.000,0.500,701.000,1.000,269.000,5.000,0
"04/02/08","15:08:25",26004.000,"cc",28253.945,6.00,6,0.100,22761.000,0.200,1607.000,0.300,611.000,0.500,745.000,1.000,279.000,5.000,1.000
"04/02/08","15:08:31",25706.000,"cc",28246.803,6.00,6,0.100,22472.000,0.200,1624.000,0.300,642.000,0.500,725.000,1.000,243.000,5.000,0
"04/02/08","15:08:37",26093.000,"cc",28284.229,6.00,6,0.100,22851.000,0.200,1681.000,0.300,626.000,0.500,698.000,1.000,237.000,5.000,0
"04/02/08","15:08:43",25566.000,"cc",28357.920,6.00,6,0.100,22516.000,0.200,1656.000,0.300,558.000,0.500,615.000,1.000,221.000,5.000,0
"04/02/08","15:08:49",25104.000,"cc",28306.318,6.00,6,0.100,22123.000,0.200,1531.000,0.300,590.000,0.500,622.000,1.000,238.000,5.000,0
"04/02/08","15:08:55",25606.000,"cc",28339.815,6.00,6,0.100,22510.000,0.200,1559.000,0.300,591.000,0.500,709.000,1.000,237.000,5.000,0
"04/02/08","15:09:01",25765.000,"cc",28328.160,6.00,6,0.100,22506.000,0.200,1668.000,0.300,583.000,0.500,749.000,1.000,259.000,5.000,0
"04/02/08","15:09:07",25608.000,"cc",28393.217,6.00,6,0.100,22512.000,0.200,1626.000,0.300,558.000,0.500,700.000,1.000,212.000,5.000,0
"04/02/08","15:09:13",25591.000,"cc",28297.820,6.00,6,0.100,22330.000,0.200,1655.000,0.300,629.000,0.500,705.000,1.000,272.000,5.000,0
"04/02/08","15:09:19",25622.000,"cc",28357.674,6.00,6,0.100,22390.000,0.200,1545.000,0.300,676.000,0.500,715.000,1.000,296.000,5.000,0
"04/02/08","15:09:25",25278.000,"cc",28374.727,6.00,6,0.100,22216.000,0.200,1618.000,0.300,573.000,0.500,625.000,1.000,246.000,5.000,0
"04/02/08","15:09:31",25395.000,"cc",28343.238,6.00,6,0.100,22188.000,0.200,1604.000,0.300,631.000,0.500,733.000,1.000,239.000,5.000,0
"04/02/08","15:09:37",25231.000,"cc",28307.930,6.00,6,0.100,22096.000,0.200,1602.000,0.300,628.000,0.500,675.000,1.000,230.000,5.000,0
"04/02/08","15:09:43",25528.000,"cc",28260.438,6.00,6,0.100,22146.000,0.200,1657.000,0.300,731.000,0.500,729.000,1.000,265.000,5.000,0
"04/02/08","15:09:49",25709.000,"cc",28292.977,6.00,6,0.100,22216.000,0.200,1676.000,0.300,765.000,0.500,785.000,1.000,267.000,5.000,0
"04/02/08","15:09:55",25225.000,"cc",28352.357,6.00,6,0.100,21932.000,0.200,1624.000,0.300,668.000,0.500,756.000,1.000,245.000,5.000,0
"04/02/08","15:10:01",24914.000,"cc",28342.188,6.00,6,0.100,21698.000,0.200,1612.000,0.300,650.000,0.500,706.000,1.000,248.000,5.000,0
"04/02/08","15:10:07",25345.000,"cc",28399.561,6.00,6,0.100,22019.000,0.200,1634.000,0.300,644.000,0.500,761.000,1.000,287.000,5.000,0
"04/02/08","15:10:13",25437.000,"cc",28368.219,6.00,6,0.100,22164.000,0.200,1609.000,0.300,692.000,0.500,715.000,1.000,257.000,5.000,0
"04/02/08","15:10:19",24641.000,"cc",28295.897,6.00,6,0.100,21626.000,0.200,1526.000,0.300,607.000,0.500,667.000,1.000,215.000,5.000,0
"04/02/08","15:10:25",24987.000,"cc",28344.772,6.00,6,0.100,21818.000,0.200,1627.000,0.300,578.000,0.500,726.000,1.000,238.000,5.000,0
"04/02/08","15:10:31",24484.000,"cc",28355.570,6.00,6,0.100,21602.000,0.200,1507.000,0.300,536.000,0.500,600.000,1.000,239.000,5.000,0
"04/02/08","15:10:37",24293.000,"cc",28265.785,6.00,6,0.100,21487.000,0.200,1493.000,0.300,496.000,0.500,616.000,1.000,201.000,5.000,0
"04/02/08","15:10:43",24241.000,"cc",28333.238,6.00,6,0.100,21453.000,0.200,1487.000,0.300,518.000,0.500,575.000,1.000,208.000,5.000,0
"04/02/08","15:10:49",24380.000,"cc",28290.318,6.00,6,0.100,21424.000,0.200,1523.000,0.300,575.000,0.500,595.000,1.000,263.000,5.000,0
"04/02/08","15:10:55",24666.000,"cc",28333.434,6.00,6,0.100,21669.000,0.200,1538.000,0.300,582.000,0.500,651.000,1.000,226.000,5.000,0
"04/02/08","15:11:01",24803.000,"cc",28259.916,6.00,6,0.100,21755.000,0.200,1528.000,0.300,602.000,0.500,679.000,1.000,239.000,5.000,0
"04/02/08","15:11:07",25198.000,"cc",28291.957,6.00,6,0.100,22200.000,0.200,1522.000,0.300,606.000,0.500,627.000,1.000,243.000,5.000,0
"04/02/08","15:11:13",25072.000,"cc",28406.666,6.00,6,0.100,22011.000,0.200,1540.000,0.300,590.000,0.500,681.000,1.000,250.000,5.000,0
"04/02/08","15:11:19",24997.000,"cc",28304.109,6.00,6,0.100,21909.000,0.200,1540.000,0.300,618.000,0.500,668.000,1.000,262.000,5.000,0
"04/02/08","15:11:25",24734.000,"cc",28431.289,6.00,6,0.100,21907.000,0.200,1451.000,0.300,522.000,0.500,627.000,1.000,227.000,5.000,0
"04/02/08","15:11:31",24750.000,"cc",28423.305,6.00,6,0.100,21859.000,0.200,1516.000,0.300,525.000,0.500,631.000,1.000,219.000,5.000,0
"04/02/08","15:11:37",23766.000,"cc",28336.420,6.00,6,0.100,21056.000,0.200,1438.000,0.300,509.000,0.500,547.000,1.000,216.000,5.000,0
"04/02/08","15:11:43",24237.000,"cc",28286.674,6.00,6,0.100,21406.000,0.200,1459.000,0.300,513.000,0.500,633.000,1.000,226.000,5.000,0
"04/02/08","15:11:49",24547.000,"cc",28247.303,6.00,6,0.100,21467.000,0.200,1582.000,0.300,533.000,0.500,736.000,1.000,229.000,5.000,0
"04/02/08","15:11:55",24363.000,"cc",28355.787,6.00,6,0.100,21679.000,0.200,1447.000,0.300,482.000,0.500,543.000,1.000,212.000,5.000,0
"04/02/08","15:12:01",24192.000,"cc",28295.873,6.00,6,0.100,21430.000,0.200,1477.000,0.300,535.000,0.500,544.000,1.000,206.000,5.000,0
"04/02/08","15:12:07",23926.000,"cc",28255.606,6.00,6,0.100,21202.000,0.200,1474.000,0.300,483.000,0.500,563.000,1.000,204.000,5.000,0
"04/02/08","15:12:13",24071.000,"cc",28257.914,6.00,6,0.100,21298.000,0.200,1461.000,0.300,522.000,0.500,585.000,1.000,205.000,5.000,0
"04/02/08","15:12:19",24217.000,"cc",28228.277,6.00,6,0.100,21334.000,0.200,1477.000,0.300,525.000,0.500,629.000,1.000,252.000,5.000,0
"04/02/08","15:12:25",24774.000,"cc",28281.723,6.00,6,0.100,21462.000,0.200,1667.000,0.300,647.000,0.500,728.000,1.000,270.000,5.000,0
"04/02/08","15:12:31",24812.000,"cc",28387.373,6.00,6,0.100,21638.000,0.200,1559.000,0.300,666.000,0.500,724.000,1.000,225.000,5.000,0
"04/02/08","15:12:37",24846.000,"cc",28383.758,6.00,6,0.100,21891.000,0.200,1511.000,0.300,567.000,0.500,638.000,1.000,239.000,5.000,0
"04/02/08","15:12:43",24665.000,"cc",28314.107,6.00,6,0.100,21740.000,0.200,1456.000,0.300,610.000,0.500,636.000,1.000,223.000,5.000,0
"04/02/08","15:12:49",24794.000,"cc",28312.035,6.00,6,0.100,21741.000,0.200,1560.000,0.300,597.000,0.500,669.000,1.000,227.000,5.000,0
"04/02/08","15:12:55",24655.000,"cc",28316.293,6.00,6,0.100,21769.000,0.200,1492.000,0.300,592.000,0.500,573.000,1.000,229.000,5.000,0
"04/02/08","15:13:01",25325.000,"cc",28292.773,6.00,6,0.100,22274.000,0.200,1597.000,0.300,627.000,0.500,614.000,1.000,213.000,5.000,0
"04/02/08","15:13:07",24946.000,"cc",28231.832,6.00,6,0.100,22109.000,0.200,1471.000,0.300,542.000,0.500,623.000,1.000,201.000,5.000,0
"04/02/08","15:13:13",25081.000,"cc",28287.565,6.00,6,0.100,22081.000,0.200,1625.000,0.300,551.000,0.500,615.000,1.000,209.000,5.000,0
"04/02/08","15:13:19",25214.000,"cc",28355.941,6.00,6,0.100,22264.000,0.200,1545.000,0.300,546.000,0.500,646.000,1.000,213.000,5.000,0
"04/02/08","15:13:25",25103.000,"cc",28300.514,6.00,6,0.100,22227.000,0.200,1504.000,0.300,554.000,0.500,576.000,1.000,242.000,5.000,0
"04/02/08","15:13:31",25416.000,"cc",28345.225,6.00,6,0.100,22305.000,0.200,1635.000,0.300,572.000,0.500,697.000,1.000,207.000,5.000,0
"04/02/08","15:13:37",25210.000,"cc",28325.684,6.00,6,0.100,22219.000,0.200,1538.000,0.300,558.000,0.500,650.000,1.000,245.000,5.000,0
"04/02/08","15:13:43",25403.000,"cc",28380.074,6.00,6,0.100,22377.000,0.200,1577.000,0.300,582.000,0.500,634.000,1.000,233.000,5.000,0
"04/02/08","15:13:49",25111.000,"cc",28272.295,6.00,6,0.100,21998.000,0.200,1622.000,0.300,580.000,0.500,678.000,1.000,233.000,5.000,0
"04/02/08","15:13:55",24950.000,"cc",28310.106,6.00,6,0.100,22180.000,0.200,1426.000,0.300,544.000,0.500,588.000,1.000,212.000,5.000,0
"04/02/08","15:14:01",24846.000,"cc",28353.170,6.00,6,0.100,21997.000,0.200,1527.000,0.300,515.000,0.500,605.000,1.000,202.000,5.000,0
"04/02/08","15:14:07",25339.000,"cc",28318.979,6.00,6,0.100,22298.000,0.200,1569.000,0.300,586.000,0.500,653.000,1.000,233.000,5.000,0
"04/02/08","15:14:13",25223.000,"cc",28362.897,6.00,6,0.100,22158.000,0.200,1621.000,0.300,595.000,0.500,616.000,1.000,233.000,5.000,0
"04/02/08","15:14:19",25366.000,"cc",28303.592,6.00,6,0.100,22084.000,0.200,1634.000,0.300,674.000,0.500,723.000,1.000,251.000,5.000,0
"04/02/08","15:14:25",25502.000,"cc",28354.363,6.00,6,0.100,22487.000,0.200,1563.000,0.300,573.000,0.500,617.000,1.000,262.000,5.000,0
"04/02/08","15:14:31",25731.000,"cc",28291.881,6.00,6,0.100,22680.000,0.200,1621.000,0.300,545.000,0.500,658.000,1.000,227.000,5.000,0
"04/02/08","15:14:37",25998.000,"cc",28222.490,6.00,6,0.100,22897.000,0.200,1606.000,0.300,565.000,0.500,698.000,1.000,232.000,5.000,0
"04/02/08","15:14:43",26012.000,"cc",28296.844,6.00,6,0.100,22752.000,0.200,1732.000,0.300,587.000,0.500,698.000,1.000,243.000,5.000,0
"04/02/08","15:14:49",26021.000,"cc",28343.190,6.00,6,0.100,22982.000,0.200,1568.000,0.300,571.000,0.500,651.000,1.000,249.000,5.000,0
"04/02/08","15:14:55",25797.000,"cc",28268.914,6.00,6,0.100,22526.000,0.200,1661.000,0.300,666.000,0.500,701.000,1.000,243.000,5.000,0
"04/02/08","15:15:01",26001.000,"cc",28295.951,6.00,6,0.100,22739.000,0.200,1633.000,0.300,676.000,0.500,673.000,1.000,280.000,5.000,0
"04/02/08","15:15:07",26353.000,"cc",28358.807,6.00,6,0.100,23046.000,0.200,1723.000,0.300,603.000,0.500,727.000,1.000,254.000,5.000,0
"04/02/08","15:15:13",26094.000,"cc",28314.369,6.00,6,0.100,23075.000,0.200,1616.000,0.300,519.000,0.500,673.000,1.000,211.000,5.000,0
"04/02/08","15:15:19",25886.000,"cc",28290.926,6.00,6,0.100,22773.000,0.200,1610.000,0.300,579.000,0.500,682.000,1.000,242.000,5.000,0
"04/02/08","15:15:25",26092.000,"cc",28418.065,6.00,6,0.100,22901.000,0.200,1642.000,0.300,613.000,0.500,698.000,1.000,238.000,5.000,0
"04/02/08","15:15:31",25887.000,"cc",28307.098,6.00,6,0.100,22653.000,0.200,1620.000,0.300,628.000,0.500,720.000,1.000,266.000,5.000,0
"04/02/08","15:15:37",25985.000,"cc",28259.096,6.00,6,0.100,22748.000,0.200,1643.000,0.300,593.000,0.500,743.000,1.000,258.000,5.000,0
"04/02/08","15:15:43",26013.000,"cc",28336.822,6.00,6,0.100,22760.000,0.200,1690.000,0.300,601.000,0.500,723.000,1.000,239.000,5.000,0
"04/02/08","15:15:49",25639.000,"cc",28316.982,6.00,6,0.100,22395.000,0.200,1636.000,0.300,648.000,0.500,712.000,1.000,248.000,5.000,0
"04/02/08","15:15:55",26000.000,"cc",28293.106,6.00,6,0.100,22656.000,0.200,1679.000,0.300,683.000,0.500,725.000,1.000,257.000,5.000,0
"04/02/08","15:16:01",25965.000,"cc",28342.994,6.00,6,0.100,22535.000,0.200,1706.000,0.300,660.000,0.500,767.000,1.000,297.000,5.000,0
"04/02/08","15:16:07",26289.000,"cc",28374.418,6.00,6,0.100,22849.000,0.200,1735.000,0.300,632.000,0.500,787.000,1.000,286.000,5.000,0
"04/02/08","15:16:13",25768.000,"cc",28321.426,6.00,6,0.100,22473.000,0.200,1680.000,0.300,617.000,0.500,725.000,1.000,273.000,5.000,0
"04/02/08","15:16:19",26405.000,"cc",28309.779,6.00,6,0.100,23069.000,0.200,1675.000,0.300,583.000,0.500,781.000,1.000,297.000,5.000,0
"04/02/08","15:16:25",26546.000,"cc",28308.113,6.00,6,0.100,23276.000,0.200,1678.000,0.300,636.000,0.500,688.000,1.000,268.000,5.000,0
"04/02/08","15:16:31",26232.000,"cc",28316.063,6.00,6,0.100,22984.000,0.200,1710.000,0.300,593.000,0.500,696.000,1.000,249.000,5.000,0
"04/02/08","15:16:37",26427.000,"cc",28301.543,6.00,6,0.100,23139.000,0.200,1680.000,0.300,612.000,0.500,741.000,1.000,255.000,5.000,0